User: anonymous
Location: Norwich
(52.6280°N, 1.3030°E)
Time: 20:54:14
(UTC+01:00)
Language:

APEX - Orbit

View from above orbital plane
View from above orbital plane
View from above satellite
View from above satellite

Ground track
Ground track

The orbit data is extracted from the following two-line orbital elements,

1 23191U 94046A   14206.09648472  .00004175  00000-0  17101-3 0  9532
2 23191 069.9237 101.3522 0746724 248.0443 218.0665 14.03918013965854
Epoch (UTC): 25 July 2014 02:18:56
Eccentricity: 0.0746724
inclination: 69.9237°
perigee height: 338 km
apogee height: 1422 km
right ascension of ascending node: 101.3522°
argument of perigee: 248.0443°
revolutions per day: 14.03918013
mean anomaly at epoch: 218.0665°
orbit number at epoch: 96585

The dashed part of the orbit path shows where the satellite is in the earth's shadow,  

DLR